Location: Castiglione Fibocchi
(43.5333°N, 11.7667°E)
Time: 18:12:14
(UTC+00:00)

SJ 16-02 - Pass Details

Date: 15 August 2020
Orbit: 607 x 616 km, 75.0° (Epoch: 18 September)

Event Time Altitude Azimuth Distance (km) Brightness Sun altitude
Exits shadow 01:46:52 11° 304° (WNW) 1,913 3.8 -23.2°
Maximum altitude 01:47:06 11° 307° (NW) 1,910 3.8 -23.1°
Drops below altitude 10° 01:48:20 10° 323° (NW) 1,976 4.1 -23.0°
Sets 01:52:23 0° 0° (N) 2,884 5.5 -22.5°
